| time (UTC) | temp F | wind direction | speed MPH | gust MPH | rain 1hr in | rain 24hr in | rain mn in | humidity % | barometer mb |
| 20260831201528 | 64 | 199 | 2.0 | 10.0 | 0.00 | 0.01 | 0.01 | 90 | 1018.6 |
| 20260831200038 | 64 | 136 | 5.0 | 12.0 | 0.00 | 0.01 | 0.01 | 90 | 1018.7 |
| 20260831194531 | 64 | 144 | 5.0 | 14.0 | 0.00 | 0.01 | 0.01 | 89 | 1018.8 |
| 20260831193037 | 64 | 183 | 5.0 | 12.0 | 0.00 | 0.01 | 0.01 | 90 | 1018.8 |
| 20260831191533 | 64 | 136 | 6.0 | 13.0 | 0.00 | 0.01 | 0.01 | 89 | 1019.0 |
| 20260831190029 | 65 | 135 | 8.0 | 12.0 | 0.00 | 0.03 | 0.01 | 88 | 1019.3 |
| 20260831184529 | 66 | 181 | 4.0 | 9.0 | 0.00 | 0.03 | 0.01 | 87 | 1019.4 |
| 20260831183029 | 66 | 187 | 1.0 | 6.0 | 0.00 | 0.05 | 0.01 | 89 | 1019.4 |
| 20260831181528 | 66 | 195 | 2.0 | 7.0 | 0.00 | 0.09 | 0.01 | 90 | 1019.6 |
| 20260831180042 | 66 | 170 | 1.0 | 7.0 | 0.00 | 0.12 | 0.01 | 90 | 1019.6 |
| 20260831174532 | 65 | 172 | 3.0 | 9.0 | 0.00 | 0.17 | 0.01 | 90 | 1019.9 |
| 20260831173027 | 66 | 134 | 4.0 | 8.0 | 0.01 | 0.17 | 0.01 | 91 | 1020.1 |
| 20260831171508 | 66 | 167 | 2.0 | 7.0 | 0.01 | 0.17 | 0.01 | 92 | 1020.0 |
| 20260831170013 | 66 | 132 | 2.0 | 5.0 | 0.01 | 0.17 | 0.01 | 93 | 1020.3 |
| 20260831164535 | 65 | 170 | 4.0 | 8.0 | 0.01 | 0.17 | 0.01 | 92 | 1020.3 |
| 20260831163027 | 66 | 180 | 1.0 | 7.0 | 0.00 | 0.16 | 0.00 | 92 | 1020.4 |
| 20260831161530 | 66 | 178 | 3.0 | 9.0 | 0.00 | 0.16 | 0.00 | 89 | 1020.6 |
| 20260831160013 | 66 | 163 | 2.0 | 7.0 | 0.00 | 0.16 | 0.00 | 89 | 1020.6 |
| 20260831154544 | 66 | 186 | 5.0 | 9.0 | 0.00 | 0.16 | 0.00 | 89 | 1020.6 |
| 20260831153027 | 66 | 153 | 5.0 | 8.0 | 0.00 | 0.16 | 0.00 | 91 | 1020.4 |
| 20260831151527 | 65 | 200 | 2.0 | 9.0 | 0.00 | 0.16 | 0.00 | 92 | 1020.5 |
| 20260831150012 | 65 | 153 | 2.0 | 10.0 | 0.00 | 0.16 | 0.00 | 92 | 1020.5 |
| 20260831144517 | 65 | 146 | 4.0 | 11.0 | 0.00 | 0.16 | 0.00 | 93 | 1020.4 |
| 20260831143022 | 65 | 163 | 4.0 | 11.0 | 0.00 | 0.16 | 0.00 | 95 | 1020.4 |
| 20260831141527 | 64 | 155 | 3.0 | 8.0 | 0.00 | 0.16 | 0.00 | 96 | 1020.3 |
| 20260831140031 | 63 | 106 | 2.0 | 9.0 | 0.00 | 0.16 | 0.00 | 97 | 1020.3 |
| 20260831134512 | 63 | 183 | 5.0 | 11.0 | 0.00 | 0.16 | 0.00 | 98 | 1020.3 |
| 20260831133016 | 62 | 182 | 3.0 | 6.0 | 0.00 | 0.16 | 0.00 | 98 | 1020.5 |
| 20260831131525 | 62 | 165 | 1.0 | 6.0 | 0.00 | 0.16 | 0.00 | 98 | 1020.5 |
| 20260831130030 | 61 | 130 | 3.0 | 7.0 | 0.00 | 0.16 | 0.00 | 98 | 1020.5 |
| 20260831124531 | 61 | 192 | 2.0 | 5.0 | 0.00 | 0.16 | 0.00 | 98 | 1020.6 |
| 20260831123013 | 61 | 159 | 3.0 | 6.0 | 0.00 | 0.16 | 0.00 | 98 | 1020.3 |
| 20260831121521 | 61 | 188 | 2.0 | 5.0 | 0.00 | 0.16 | 0.00 | 98 | 1020.8 |
| 20260831120035 | 60 | 188 | 1.0 | 3.0 | 0.00 | 0.16 | 0.00 | 98 | 1020.9 |
| 20260831114536 | 60 | 241 | 1.0 | 3.0 | 0.00 | 0.16 | 0.00 | 98 | 1020.9 |
| 20260831113035 | 60 | 241 | 1.0 | 3.0 | 0.00 | 0.16 | 0.00 | 98 | 1020.8 |
| 20260831111519 | 60 | 241 | 1.0 | 3.0 | 0.00 | 0.16 | 0.00 | 98 | 1020.7 |
| 20260831110025 | 59 | 241 | 0.0 | 2.0 | 0.00 | 0.16 | 0.00 | 98 | 1020.7 |
| 20260831104546 | 59 | 241 | 0.0 | 0.0 | 0.00 | 0.16 | 0.00 | 98 | 1020.6 |
| 20260831103031 | 60 | 241 | 0.0 | 0.0 | 0.00 | 0.16 | 0.00 | 98 | 1020.5 |
| 20260831101536 | 60 | 241 | 0.0 | 0.0 | 0.00 | 0.16 | 0.00 | 98 | 1020.3 |
| 20260831100018 | 60 | 241 | 0.0 | 2.0 | 0.00 | 0.16 | 0.00 | 98 | 1020.2 |
| 20260831094530 | 60 | 241 | 0.0 | 1.0 | 0.00 | 0.16 | 0.00 | 98 | 1020.1 |
| 20260831093040 | 60 | 241 | 0.0 | 0.0 | 0.00 | 0.16 | 0.00 | 98 | 1020.2 |
| 20260831091530 | 60 | 241 | 0.0 | 2.0 | 0.00 | 0.16 | 0.00 | 98 | 1020.2 |
| 20260831090039 | 60 | 241 | 0.0 | 2.0 | 0.00 | 0.16 | 0.00 | 98 | 1020.2 |
| 20260831084524 | 60 | 241 | 0.0 | 1.0 | 0.00 | 0.16 | 0.00 | 98 | 1020.3 |
| 20260831083031 | 60 | 241 | 0.0 | 1.0 | 0.00 | 0.16 | 0.00 | 98 | 1020.3 |
| 20260831081531 | 60 | 241 | 0.0 | 0.0 | 0.00 | 0.16 | 0.00 | 98 | 1020.4 |
| 20260831080036 | 60 | 241 | 0.0 | 1.0 | 0.00 | 0.16 | 0.00 | 98 | 1020.4 |
| 20260831074533 | 60 | 241 | 0.0 | 2.0 | 0.00 | 0.16 | 0.00 | 98 | 1020.2 |
| 20260831073029 | 60 | 241 | 0.0 | 2.0 | 0.00 | 0.16 | 0.00 | 98 | 1020.1 |
| 20260831071533 | 60 | 241 | 0.0 | 0.0 | 0.00 | 0.16 | 0.00 | 98 | 1020.4 |
| 20260831070038 | 60 | 241 | 0.0 | 2.0 | 0.00 | 0.16 | 0.00 | 98 | 1020.3 |
| 20260831064537 | 60 | 241 | 0.0 | 1.0 | 0.00 | 0.16 | 0.00 | 98 | 1020.2 |
| 20260831063025 | 61 | 241 | 0.0 | 1.0 | 0.00 | 0.16 | 0.00 | 98 | 1020.2 |
| 20260831061529 | 61 | 241 | 0.0 | 1.0 | 0.00 | 0.16 | 0.00 | 98 | 1020.3 |
| 20260831060030 | 61 | 241 | 0.0 | 0.0 | 0.00 | 0.16 | 0.00 | 98 | 1020.4 |
| 20260831054534 | 61 | 241 | 0.0 | 2.0 | 0.00 | 0.16 | 0.00 | 98 | 1020.5 |
| 20260831053035 | 61 | 241 | 0.0 | 1.0 | 0.00 | 0.16 | 0.00 | 98 | 1020.6 |
| 20260831051504 | 61 | 241 | 0.0 | 1.0 | 0.00 | 0.16 | 0.00 | 98 | 1020.9 |
| 20260831050007 | 61 | 241 | 0.0 | 2.0 | 0.00 | 0.16 | 0.00 | 98 | 1021.1 |
| 20260831044513 | 61 | 241 | 0.0 | 0.0 | 0.00 | 0.16 | 0.00 | 98 | 1021.0 |
| 20260831043019 | 61 | 241 | 0.0 | 1.0 | 0.00 | 0.16 | 0.00 | 98 | 1020.9 |
| 20260831041504 | 61 | 241 | 0.0 | 1.0 | 0.00 | 0.16 | 0.00 | 98 | 1020.8 |
| 20260831040006 | 61 | 241 | 0.0 | 0.0 | 0.00 | 0.16 | 0.00 | 98 | 1020.9 |
| 20260831034508 | 61 | 241 | 0.0 | 1.0 | 0.00 | 0.16 | 0.16 | 98 | 1020.9 |
| 20260831033014 | 61 | 241 | 0.0 | 1.0 | 0.00 | 0.16 | 0.16 | 98 | 1020.8 |
| 20260831031521 | 61 | 241 | 0.0 | 1.0 | 0.00 | 0.16 | 0.16 | 98 | 1020.5 |
| 20260831030004 | 61 | 241 | 0.0 | 2.0 | 0.00 | 0.16 | 0.16 | 98 | 1020.5 |
| 20260831024506 | 61 | 198 | 0.0 | 2.0 | 0.00 | 0.16 | 0.16 | 98 | 1020.5 |
| 20260831023014 | 61 | 198 | 0.0 | 2.0 | 0.00 | 0.16 | 0.16 | 98 | 1020.5 |
| 20260831021520 | 61 | 198 | 0.0 | 1.0 | 0.00 | 0.16 | 0.16 | 98 | 1020.5 |
| 20260831020025 | 61 | 198 | 0.0 | 0.0 | 0.00 | 0.16 | 0.16 | 98 | 1020.6 |
| 20260831014506 | 61 | 198 | 0.0 | 1.0 | 0.00 | 0.16 | 0.16 | 97 | 1020.5 |
| 20260831013011 | 61 | 198 | 0.0 | 1.0 | 0.00 | 0.16 | 0.16 | 97 | 1020.4 |
| 20260831011516 | 62 | 198 | 0.0 | 3.0 | 0.00 | 0.16 | 0.16 | 97 | 1020.4 |
| 20260831010025 | 62 | 260 | 2.0 | 4.0 | 0.00 | 0.16 | 0.16 | 97 | 1020.2 |
| 20260831004527 | 62 | 238 | 1.0 | 3.0 | 0.00 | 0.16 | 0.16 | 97 | 1020.3 |
| 20260831003008 | 62 | 202 | 1.0 | 4.0 | 0.00 | 0.16 | 0.16 | 97 | 1020.1 |
| 20260831001512 | 62 | 263 | 1.0 | 2.0 | 0.00 | 0.16 | 0.16 | 97 | 1019.9 |
| 20260831000021 | 62 | 243 | 0.0 | 3.0 | 0.00 | 0.16 | 0.16 | 97 | 1019.8 |
| 20260830234550 | 62 | 285 | 0.0 | 3.0 | 0.00 | 0.16 | 0.16 | 97 | 1019.6 |
| 20260830233033 | 62 | 263 | 0.0 | 6.0 | 0.00 | 0.16 | 0.16 | 97 | 1019.4 |
| 20260830231513 | 63 | 267 | 1.0 | 3.0 | 0.00 | 0.16 | 0.16 | 97 | 1019.4 |
| 20260830230018 | 62 | 263 | 1.0 | 6.0 | 0.00 | 0.16 | 0.16 | 97 | 1019.4 |
| 20260830224525 | 62 | 268 | 2.0 | 7.0 | 0.00 | 0.16 | 0.16 | 97 | 1019.5 |
| 20260830223035 | 62 | 328 | 1.0 | 4.0 | 0.00 | 0.16 | 0.16 | 97 | 1019.5 |
| 20260830221536 | 62 | 235 | 1.0 | 4.0 | 0.00 | 0.16 | 0.16 | 97 | 1019.4 |
| 20260830220014 | 62 | 225 | 2.0 | 3.0 | 0.00 | 0.16 | 0.16 | 97 | 1019.4 |
| 20260830214520 | 62 | 249 | 1.0 | 4.0 | 0.00 | 0.16 | 0.16 | 97 | 1019.4 |
| 20260830213027 | 62 | 261 | 1.0 | 4.0 | 0.00 | 0.16 | 0.16 | 97 | 1019.3 |
| 20260830211534 | 62 | 161 | 2.0 | 4.0 | 0.00 | 0.16 | 0.16 | 97 | 1019.4 |
| 20260830210012 | 62 | 242 | 0.0 | 4.0 | 0.00 | 0.16 | 0.16 | 97 | 1019.5 |
| 20260830204516 | 62 | 218 | 1.0 | 3.0 | 0.00 | 0.16 | 0.16 | 96 | 1019.6 |
| 20260830203042 | 61 | 264 | 1.0 | 3.0 | 0.00 | 0.16 | 0.16 | 96 | 1019.6 |